Location: Austin
(30.3000°N, 97.7500°W)
Time: 00:03:10
(UTC-05:00)

Resurs 01 Rocket - Pass Details

Date: 06 May 2026
Orbit: 626 x 636 km, 97.7° (Epoch: 13 May)

Event Time Altitude Azimuth Distance (km) Brightness Sun altitude
Rises 21:00:59 0° 187° (S) 2,896 4.8 -10.5°
Reaches altitude 10° 21:03:19 10° 196° (SSW) 1,992 4.1 -10.9°
Maximum altitude 21:07:17 35° 262° (W) 1,019 3.2 -11.7°
Drops below altitude 10° 21:11:16 10° 328° (NNW) 2,002 5.2 -12.4°
Sets 21:13:38 0° 337° (NNW) 2,912 5.9 -12.9°
